Russellville, AR

5:40 PM CST on December 02, 2016 (GMT -0600)
Russellville Regional

Weather History for KRUE - August, 2013

Change the Weather History Date:

Wednesday, August 21, 2013

  Actual Average (KHOT) Record (KHOT)
Temperature  
Mean Temperature 80 °F -  
Max Temperature 93 °F 93 °F 104 °F (1993)
Min Temperature 66 °F 69 °F 58 °F (1961)
Cooling Degree Days 14    
Growing Degree Days 30 (Base 50)    
Moisture  
Dew Point 66 °F    
Average Humidity 68    
Maximum Humidity 93    
Minimum Humidity 33    
Precipitation  
Precipitation 0.00 in - - ()
Sea Level Pressure  
Sea Level Pressure 30.06 in    
Wind  
Wind Speed 1 mph (North)    
Max Wind Speed 6 mph    
Max Gust Speed -    
Visibility 9 miles    
Events      
Averages and records for this station are not official NWS values.
T = Trace of Precipitation, MM = Missing Value Source: NWS Daily Summary

Daily Weather History Graph

Daily Weather History Graph

Search for Another Location

Airport or City:

Trip Planner

Search our weather history database for the weather conditions in past years. The results will help you decide how hot, cold, wet, or windy it might be!

Date:

Astronomy

Aug. 21, 2013 Rise Set
Actual Time 6:36 AM CDT 7:53 PM CDT
Civil Twilight 6:10 AM CDT 8:19 PM CDT
Nautical Twilight 5:38 AM CDT 8:51 PM CDT
Astronomical Twilight 5:05 AM CDT 9:24 PM CDT
Moon 8:07 PM CDT (8/21) 7:13 AM CDT (8/21)
Length of Visible Light 14h 09m
Length of Day
13h 16m
Waxing Gibbous, 99% of the Moon is Illuminated
Aug 21
Waxing Gibbous
Aug 28
Last Quarter
Sep 5
New
Sep 12
First Quarter
Sep 19
Full

Hourly Weather History & Observations

Time (CDT) Temp. Heat Index Dew Point Humidity Pressure Visibility Wind Dir Wind Speed Gust Speed Precip Events Conditions
12:53 AM 70.0 °F - 66.0 °F 87% 30.05 in 10.0 mi Calm Calm - N/A   Clear
1:53 AM 68.0 °F - 64.9 °F 90% 30.05 in 9.0 mi Calm Calm - N/A   Clear
2:53 AM 68.0 °F - 64.0 °F 87% 30.05 in 7.0 mi Calm Calm - N/A   Clear
3:53 AM 68.0 °F - 64.9 °F 90% 30.04 in 7.0 mi Calm Calm - N/A   Clear
4:53 AM 66.9 °F - 64.0 °F 90% 30.06 in 6.0 mi Calm Calm - N/A   Clear
5:53 AM 66.9 °F - 64.0 °F 90% 30.07 in 6.0 mi Calm Calm - N/A   Clear
6:53 AM 66.0 °F - 64.0 °F 93% 30.09 in 4.0 mi Calm Calm - N/A   Clear
7:53 AM 71.1 °F - 66.9 °F 87% 30.10 in 7.0 mi Calm Calm - N/A   Clear
8:53 AM 77.0 °F - 69.1 °F 76% 30.11 in 10.0 mi Calm Calm - N/A   Clear
9:53 AM 81.0 °F 84.4 °F 70.0 °F 69% 30.11 in 10.0 mi Calm Calm - N/A   Clear
10:53 AM 84.0 °F 87.0 °F 68.0 °F 58% 30.12 in 10.0 mi Calm Calm - N/A   Clear
11:53 AM 87.1 °F 91.3 °F 69.1 °F 55% 30.11 in 10.0 mi Variable 4.6 mph - N/A   Clear
12:53 PM 89.1 °F 92.1 °F 66.9 °F 48% 30.10 in 10.0 mi Variable 5.8 mph - N/A   Clear
1:53 PM 91.9 °F 92.5 °F 62.1 °F 37% 30.07 in 10.0 mi Variable 3.5 mph - N/A   Partly Cloudy
2:53 PM 93.0 °F 93.0 °F 61.0 °F 34% 30.05 in 10.0 mi Variable 3.5 mph - N/A   Clear
3:53 PM 93.9 °F 94.0 °F 61.0 °F 33% 30.03 in 10.0 mi Variable 3.5 mph - N/A   Clear
4:53 PM 93.0 °F 92.7 °F 60.1 °F 33% 30.02 in 10.0 mi Calm Calm - N/A   Clear
5:53 PM 91.9 °F 92.5 °F 62.1 °F 37% 30.02 in 10.0 mi Calm Calm - N/A   Partly Cloudy
6:53 PM 90.0 °F 91.7 °F 64.9 °F 43% 30.02 in 10.0 mi Calm Calm - N/A   Clear
7:53 PM 82.0 °F 85.5 °F 69.1 °F 65% 30.02 in 10.0 mi Calm Calm - N/A   Clear
8:53 PM 78.1 °F - 68.0 °F 71% 30.03 in 10.0 mi Calm Calm - N/A   Clear
9:53 PM 75.0 °F - 68.0 °F 79% 30.05 in 10.0 mi Calm Calm - N/A   Clear
10:53 PM 73.9 °F - 68.0 °F 82% 30.06 in 10.0 mi Calm Calm - N/A   Clear
11:53 PM 72.0 °F - 68.0 °F 87% 30.06 in 10.0 mi Calm Calm - N/A   Clear